Regional Weather Roundup
Issued by NWS

Home | Current Version | Previous Version | Text Only | Print | Product List | Glossary On
Versions: 1 2 3 4 5 6 7 8 9 10 11 12 13 14 15 16 17 18 19 20 21 22 23 24 25 26 27 28 29 30 31 32 33 34 35 36 37 38 39 40 41 42 43 44 45 46 47 48 49 50
000
ASUS44 KBMX 050310
RWRAL

ALABAMA REGIONAL WEATHER ROUNDUP
NATIONAL WEATHER SERVICE BIRMINGHAM AL
1000 PM CDT SAT JUL 04 2015

NOTE: "FAIR" INDICATES FEW OR NO CLOUDS BELOW 12,000 FEET
WITH NO SIGNIFICANT WEATHER AND/OR OBSTRUCTIONS TO VISIBILITY.

THE REMARK "TC" DENOTES TEMPERATURE IN DEGREES CELSIUS.

ALZ001>011-014-016>018-020-050400-
NORTH ALABAMA

CITY           SKY/WX    TMP DP  RH WIND       PRES   REMARKS
MUSCLE SHOALS  CLOUDY    70  66  87 CALM      30.04R
HUNTSVILLE     HVY RAIN  71  68  90 NW6       30.02S FOG
DECATUR        RAIN      69  68  96 CALM      30.03R FOG
HALEYVILLE     FAIR      67  67 100 CALM      30.07R FOG
GADSDEN        MOCLDY    81  64  57 SW6       30.04R
$$

ALZ012-013-022-023-030>036-040>044-050400-
WEST CENTRAL ALABAMA

CITY           SKY/WX    TMP DP  RH WIND       PRES   REMARKS
TUSCALOOSA     CLOUDY    72  70  93 S6        30.06R
$$

ALZ015-024>027-033>036-040>044-050400-
CENTRAL ALABAMA

CITY           SKY/WX    TMP DP  RH WIND       PRES   REMARKS
BIRMINGHAM     CLOUDY    71  68  90 S12       30.08R
MONTGOMERY     CLOUDY    73  69  87 S8        30.09R
SHELBY CO ARPT MOCLDY    70  68  93 S6        30.08R
MAXWELL AFB    CLOUDY    72  71  96 S7        30.08R
GREENVILLE     CLOUDY    71  68  90 SE3       30.10R
$$

ALZ019-021-028-029-037-038-045>048-050400-
EAST CENTRAL ALABAMA

CITY           SKY/WX    TMP DP  RH WIND       PRES   REMARKS
ANNISTON       CLOUDY    72  67  84 SW3       30.06R HAZE
ALEXANDER CITY CLOUDY    72  69  90 S6        30.09R
AUBURN         CLOUDY    68  64  88 S9        30.11S
$$

ALZ051>064-050400-
SOUTHWEST ALABAMA

CITY           SKY/WX    TMP DP  RH WIND       PRES   REMARKS
MOBILE         CLOUDY    72  71  97 CALM      30.09R FOG
BROOKLEY FIELD CLOUDY    73  72  96 CALM      30.08R FOG
EVERGREEN      CLOUDY    71  69  93 SE5       30.10R
$$

ALZ049-050-065>069-050400-
SOUTHEAST ALABAMA

CITY           SKY/WX    TMP DP  RH WIND       PRES   REMARKS
DOTHAN         CLOUDY    70  69  97 E5          N/A
OZARK          CLOUDY    70  69  98 SE3       30.12S
TROY           CLOUDY    72  69  90 SE6       30.11R
EUFAULA          N/A     71  70  96 SE5       30.10F
$$


USA.gov is the U.S. government's official web portal to all federal, state and local government web resources and services.